Location: Gaast
(52.9002°N, 5.8891°E)
Time: 06:49:18
(UTC+00:00)

Cosmos 1092 Rocket - Pass Details

Date: 18 November 2025
Orbit: 953 x 994 km, 82.9° (Epoch: 11 December)

Event Time Altitude Azimuth Distance (km) Brightness Sun altitude
Rises 18:06:35 0° 350° (N) 3,699 7.1 -22.1°
Reaches altitude 10° 18:09:09 10° 352° (N) 2,741 6.4 -22.5°
Maximum altitude 18:15:26 72° 77° (ENE) 1,024 3.8 -23.4°
Drops below altitude 10° 18:21:35 10° 162° (SSE) 2,695 6.1 -24.3°
Sets 18:24:05 0° 164° (SSE) 3,632 6.8 -24.7°
